Location: ???????
(54.9567°N, 38.2836°E)
Time: 17:01:16
(UTC+00:00)

Okean 1 - Pass Details

Date: 14 April 2024
Orbit: 507 x 529 km, 82.5° (Epoch: 24 May)

Event Time Altitude Azimuth Distance (km) Brightness Sun altitude
Exits shadow 00:57:46 17° 212° (SSW) 1,347 4.7 -12.0°
Maximum altitude 01:00:30 53° 286° (WNW) 637 3.4 -11.7°
Drops below altitude 10° 01:04:14 10° 4° (N) 1,741 6.4 -11.3°
Sets 01:06:25 0° 9° (N) 2,631 7.5 -11.0°
